Lid_Strength_Index
8 9 10 9 9 8 7 8 10 13 13 12 12 10 10 11 12 13 13 12 12 12 12 12 12 12 12 12 11 11 11 10 10 10 9 9 8 8
8 8 8 10 10 9 8 7 8 10 12 10 11 10 10 10 12 12 13 13 13 13 13 13 13 13 13 12 12 12 11 11 10 10 10 9 8 8
9 9 9 9 10 10 10 10 9 9 11 12 11 11 12 12 12 12 13 14 15 14 14 13 14 14 14 13 13 12 12 11 11 11 10 9 9 7
9 9 9 8 9 10 10 9 9 10 11 13 13 13 13 13 13 13 13 14 15 14 14 14 14 14 14 14 13 13 13 12 12 11 11 9 8 8
9 9 9 9 10 10 9 9 9 9 10 12 14 14 14 14 15 15 15 15 14 14 14 14 14 14 14 14 14 13 13 13 12 12 11 10 9 8
9 9 10 10 10 10 10 10 9 10 12 12 13 14 14 14 14 15 16 15 15 15 15 15 14 13 14 14 14 13 13 12 12 11 11 10 10 9
9 9 9 10 9 9 10 11 11 11 11 12 13 13 14 15 15 15 15 15 16 15 15 16 17 16 17 15 15 13 13 12 12 11 10 10 10 10
10 10 9 9 10 9 9 9 10 12 12 13 13 14 14 14 14 14 15 16 17 15 15 16 16 19 18 16 13 13 12 12 12 11 10 10 10 10
10 10 11 10 10 10 9 9 10 10 10 13 13 14 14 14 14 14 15 15 16 16 15 17 16 17 18 17 13 13 12 12 11 10 10 10 10 10
10 11 12 11 10 9 10 10 10 12 12 12 13 13 13 13 13 14 14 15 16 16 16 17 16 18 19 19 13 13 12 11 11 10 10 10 10 11
11 10 12 12 10 8 10 10 10 11 10 10 10 11 11 12 12 14 15 15 16 17 16 15 16 19 21 20 19 13 12 12 11 10 10 10 10 11
12 12 11 11 10 8 10 10 11 11 12 12 13 13 13 14 13 14 14 15 16 17 16 17 16 16 19 21 21 17 16 13 12 11 10 10 10 12
13 13 12 11 10 9 8 9 9 10 11 12 13 13 14 14 15 15 16 16 16 17 16 15 16 15 19 22 17 17 16 16 15 14 12 11 11 11
14 13 13 10 10 9 9 8 8 10 10 12 13 14 15 15 15 16 17 18 17 17 16 15 16 17 22 25 21 17 16 15 15 15 14 12 12 11
13 13 12 10 9 10 10 9 10 10 11 13 14 14 14 14 14 15 16 16 17 17 18 19 18 20 21 24 19 18 16 15 15 16 14 14 14 13
15 16 13 12 11 11 12 11 11 11 11 12 14 14 14 14 15 15 15 16 18 18 18 17 18 19 21 22 21 18 17 16 16 16 15 13 13 13
18 20 17 17 16 15 15 14 12 11 12 12 12 14 14 15 15 15 15 15 17 18 19 18 18 18 19 20 18 17 17 17 16 16 13 13 13 13
24 21 19 18 19 18 18 17 15 14 13 12 12 13 15 15 15 15 15 16 16 17 18 18 19 19 20 18 16 18 16 17 16 14 15 14 14 13
25 22 20 20 20 20 19 18 18 16 13 13 12 13 13 15 15 15 15 16 16 16 17 18 17 19 23 23 19 15 17 16 15 14 14 15 14 13
28 23 21 20 20 20 19 19 18 17 16 14 12 12 13 14 15 16 16 16 16 16 18 20 20 20 20 21 20 18 14 16 15 15 14 13 14 11
28 27 23 22 21 20 19 20 20 19 18 16 15 13 13 13 15 16 17 17 16 16 21 20 19 20 22 23 21 19 17 14 14 15 15 13 14 14
28 28 28 28 26 24 22 22 22 20 19 19 18 17 16 13 14 14 15 16 17 18 22 21 20 22 22 22 26 25 20 17 13 12 12 13 13 16
27 28 28 30 32 30 27 24 23 22 21 21 20 19 17 16 13 14 15 16 18 17 21 21 21 21 24 23 20 20 16 15 13 13 12 11 11 11